OPS 4682 DEB, 1399

Orbit data source: Space-Track

OPS 4682 DEB, 1399 is space debris in LEO originally from a launch on Sat, 03 Apr 1965 UTC launched from the Air Force Western Test Range (AFWTR). Debris objects in space refer to the collection of defunct objects orbiting the Earth. Examples of debris include non-operational satellites, rocket bodies, and fragments generated from explosions, collisions, or faulty payload assembly.

Loading next visibility...
Identifier
1399, 1965-027E
Orbit
LEO
Last TLE update
6 days ago
Origin
Manufacturer
Unknown
Mission
Spacecraft
Bus & Motor
Unknown
Mass
Unknown
Launch date (UTC)
1965-04-03 (60 years ago)
Launch vehicle
Unknown
Launch site
Air Force Western Test Range (AFWTR)
Object type
Payload
Rocket body
Debris
Shape & HBR
Unknown
Radar Cross Section
Small (<0.1 m²)

Expand to show TLE details & history

TLE from 6 days ago
0 OPS 4682 DEB
1 01399U 65027E   25177.25005321  .00000412  00000-0  13496-2 0  9994
2 01399  90.2576  16.3698 0010397 137.6233 222.5694 12.99740699586860
Epoch: 2025-06-26T06:00Z
TLE epoch observation values (Epoch: 2025-06-26T06:00:04.597Z)
Latitude
0.00001°
Longitude
11.73068°
Altitude
1,271.842 km
Speed
7.217 km/s
True Right ascension
01h 05m 28s
True Declination
0° 00' 00"
Sunlit
Object was in daylight at epoch
Visualization orbit readout
Latitude
23.49°
Longitude
-168.01991°
Altitude
1,259.354 km
Speed
7.231 km/s
Apparent Right ascension
13h 14m 14s
Apparent Declination
-26° 16' 51"
Sunlit
Object is in daylight
Visualization observer readout
Local Sidereal Time
13:03:07
Azimuth
177.28° S
Elevation
23.753°
Doppler factor
1
Orbital elements
Apogee altitude
1,268.172 km
Perigee altitude
1,252.289 km
Semi-major axis
7,638.367 km
Eccentricity
0.00104
Inclination
90.2576°
RAAN
16.3698°
Arg. of periapsis
137.6233°
True anomaly
Unknown
Mean anomaly
222.5694°
Eccentric anomaly
Unknown
Mean motion
3.25119 °/min
Orbital period
110.73 mins
BSTAR
0.0013496
Loading maneuver chart data...
Loading SW <> Apogee altitude chart data...
Loading historical data...
Loading historical data...
Loading historical data...
Loading historical data...
Loading historical data...
Loading historical data...
Loading historical data...

OPS 4682 DEB Visibility forecast

Observer location: undefined°, undefined°

Span
Click to sort rows by Start time (UTC) header in descending order
Start Az.
Max El. time (UTC)
Max El. Az.
Max El.
End time (UTC)
End Az.
8 mins2025-07-02 03:03:13.865Z322.373° NNW2025-07-02 03:07:13.865Z286.067° WNW17.48°2025-07-02 03:11:13.865Z252.486° W
9 mins2025-07-02 11:48:13.865Z111.425° ESE2025-07-02 11:52:13.865Z74.702° E20.798°2025-07-02 11:57:13.865Z28.836° NE
13 mins2025-07-02 13:36:13.865Z189.218° SSW2025-07-02 13:42:13.865Z265.557° W42.753°2025-07-02 13:49:13.865Z351.547° N
6 mins2025-07-02 23:24:13.865Z53.524° ENE2025-07-02 23:26:13.865Z70.286° E13.527°2025-07-02 23:30:13.865Z103.203° ESE
10 mins2025-07-03 01:12:13.865Z4.063° NNE2025-07-03 01:18:13.865Z79.867° E44.906°2025-07-03 01:22:13.865Z180.425° SSW
|